Back to catalog

OTTER

AliveScienceSSO
NORAD 62623·PAYLOAD·🇺🇸 United States

Launched Jan 14, 2025 from Vandenberg Space Force Base

Loading…

Next Passes (next 24 hours)

TLE

FreshSource: Space-Track

Epoch: Sep 13, 2026, 04:48 UTC

1 62623U 25009Q   26256.20067900  .00006631  00000-0  22166-3 0  9996
2 62623  97.3984 338.0947 0004538  17.1725 342.9669 15.31331374 92380

Track OTTER in real time with AllMySat

Download on the App Store